Overview Statistics Trail Chart Weather Telemetry Raw packets
 

This is the latest recevied weather packets stored in our database for station/object IZ8FMH-11. If no packets are shown the sender has not sent any weather packets the latest 10 day(s).

<< 3 4 5 6 7 8 9 >>
Time Temp. Humidity Pressure Rain* Wind** Luminosity Snow
1788392103 27.22° C 51% 1014.4 hPa - - - -
1788390303 27.22° C 49% 1014.4 hPa - - - -
1788388504 27.78° C 51% 1014.5 hPa - - - -
1788386703 27.78° C 51% 1014.6 hPa - - - -
1788384904 27.78° C 48% 1014.6 hPa - - - -
1788383103 28.33° C 43% 1014.7 hPa - - - -
1788381303 28.33° C 45% 1014.6 hPa - - - -
1788379502 28.89° C 45% 1014.7 hPa - - - -
1788377702 28.89° C 44% 1014.7 hPa - - - -
1788375902 29.44° C 45% 1014.5 hPa - - - -
1788374102 29.44° C 48% 1014.3 hPa - - - -
1788372302 30° C 55% 1014.3 hPa - - - -
1788370502 30° C 57% 1014.1 hPa - - - -
1788368702 30.56° C 52% 1014.1 hPa - - - -
1788366902 30.56° C 55% 1014.1 hPa - - - -
1788365102 30.56° C 58% 1014.1 hPa - - - -
1788363302 30.56° C 59% 1014.2 hPa - - - -
1788361502 30.56° C 61% 1014.3 hPa - - - -
1788359701 30.56° C 61% 1014.3 hPa - - - -
1788357901 30.56° C 61% 1014.6 hPa - - - -
1788356101 30.56° C 61% 1014.8 hPa - - - -
1788354301 30.56° C 61% 1015 hPa - - - -
1788352501 30.56° C 60% 1015.1 hPa - - - -
1788350703 30° C 61% 1015.4 hPa - - - -
1788348903 30° C 59% 1015.6 hPa - - - -

* Rain since midnight (hover to see other rain measurements)
** Current wind speed in m/s (hover to see current wind gust speed)